| time (UTC) | temp F | wind direction | speed knots | gust knots | rain 1hr in | rain 24hr in | rain mn in | humidity % | barometer mb |
| 20260504184748 | 55 | 300 | 0.0 | 0.0 | 0.00 | 0.00 | 0.00 | 36 | 1010.7 |
| 20260504184241 | 55 | 316 | 0.0 | 0.0 | 0.00 | 0.00 | 0.00 | 37 | 1010.3 |
| 20260504183751 | 55 | 29 | 0.0 | 0.0 | 0.00 | 0.00 | 0.00 | 38 | 1010.3 |
| 20260504183249 | 55 | 313 | 0.0 | 0.0 | 0.00 | 0.00 | 0.00 | 40 | 1010.3 |
| 20260504183137 | 55 | 306 | 0.0 | 0.0 | 0.00 | 0.00 | 0.00 | 40 | 1010.3 |
| 20260504182742 | 55 | 347 | 0.0 | 0.0 | 0.00 | 0.00 | 0.00 | 40 | 1010.2 |
| 20260504182252 | 55 | 2 | 0.0 | 0.0 | 0.00 | 0.00 | 0.00 | 42 | 1010.2 |
| 20260504181745 | 55 | 353 | 0.0 | 0.0 | 0.00 | 0.00 | 0.00 | 41 | 1010.2 |
| 20260504181235 | 55 | 24 | 0.0 | 0.0 | 0.00 | 0.00 | 0.00 | 41 | 1009.6 |
| 20260504180736 | 55 | 326 | 0.0 | 0.0 | 0.00 | 0.00 | 0.00 | 41 | 1009.6 |
| 20260504180254 | 55 | 45 | 0.0 | 0.0 | 0.00 | 0.00 | 0.00 | 41 | 1009.6 |
| 20260504180137 | 55 | 355 | 0.0 | 0.0 | 0.00 | 0.00 | 0.00 | 41 | 1009.6 |
| 20260504175735 | 55 | 326 | 0.0 | 0.0 | 0.00 | 0.00 | 0.00 | 41 | 1008.9 |
| 20260504175247 | 55 | 326 | 0.0 | 0.0 | 0.00 | 0.00 | 0.00 | 41 | 1008.9 |
| 20260504174740 | 55 | 323 | 0.0 | 0.0 | 0.00 | 0.00 | 0.00 | 41 | 1008.9 |
| 20260504174250 | 55 | 322 | 0.0 | 0.0 | 0.00 | 0.00 | 0.00 | 41 | 1008.4 |
| 20260504173739 | 55 | 322 | 0.0 | 0.0 | 0.00 | 0.00 | 0.00 | 42 | 1008.4 |
| 20260504173130 | 55 | 317 | 0.0 | 0.0 | 0.00 | 0.00 | 0.00 | 43 | 1008.4 |
| 20260504172750 | 55 | 320 | 0.0 | 0.0 | 0.00 | 0.00 | 0.00 | 43 | 1008.3 |
| 20260504172238 | 54 | 83 | 0.0 | 0.0 | 0.00 | 0.00 | 0.00 | 44 | 1008.2 |
| 20260504170740 | 54 | 8 | 0.0 | 0.0 | 0.00 | 0.00 | 0.00 | 44 | 1007.8 |
| 20260504170237 | 54 | 336 | 0.0 | 0.0 | 0.00 | 0.00 | 0.00 | 44 | 1007.8 |
| 20260504170141 | 54 | 323 | 0.0 | 0.0 | 0.00 | 0.00 | 0.00 | 44 | 1007.8 |
| 20260504160251 | 55 | 350 | 0.0 | 0.0 | 0.00 | 0.00 | 0.00 | 43 | 1006.6 |
| 20260504160135 | 55 | 55 | 0.0 | 0.0 | 0.00 | 0.00 | 0.00 | 43 | 1006.6 |
| 20260504150744 | 58 | 348 | 0.0 | 0.0 | 0.00 | 0.00 | 0.00 | 45 | 1004.9 |
| 20260504150242 | 58 | 354 | 0.0 | 0.0 | 0.00 | 0.00 | 0.00 | 45 | 1004.9 |
| 20260504150146 | 58 | 322 | 0.0 | 0.0 | 0.00 | 0.00 | 0.00 | 45 | 1004.9 |
| 20260504141250 | 58 | 21 | 0.0 | 0.0 | 0.00 | 0.00 | 0.11 | 47 | 1003.4 |
| 20260504140743 | 59 | 322 | 0.0 | 0.0 | 0.00 | 0.00 | 0.11 | 47 | 1003.4 |
| 20260504140238 | 59 | 353 | 0.0 | 0.0 | 0.00 | 0.00 | 0.11 | 47 | 1003.4 |
| 20260504140142 | 59 | 26 | 0.0 | 0.0 | 0.00 | 0.00 | 0.11 | 47 | 1003.4 |
| 20260504130244 | 60 | 1 | 0.0 | 0.0 | 0.00 | 0.00 | 0.11 | 45 | 1001.9 |
| 20260504130132 | 60 | 316 | 0.0 | 0.0 | 0.00 | 0.00 | 0.11 | 45 | 1001.9 |
| 20260504120242 | 63 | 98 | 0.0 | 0.0 | 0.00 | 0.00 | 0.11 | 41 | 1000.3 |
| 20260504120127 | 64 | 324 | 0.0 | 0.0 | 0.00 | 0.00 | 0.11 | 41 | 1000.3 |
| 20260504110130 | 66 | 5 | 0.0 | 0.0 | 0.00 | 0.00 | 0.11 | 40 | 997.7 |
| 20260504100239 | 73 | 53 | 0.0 | 0.0 | 0.00 | 0.00 | 0.11 | 27 | 995.2 |
| 20260504100143 | 73 | 11 | 0.0 | 0.0 | 0.00 | 0.00 | 0.11 | 27 | 995.2 |
| 20260504090134 | 77 | 73 | 0.0 | 0.0 | 0.00 | 0.00 | 0.11 | 27 | 993.0 |
| 20260504081742 | 78 | 113 | 0.0 | 0.0 | 0.00 | 0.00 | 0.11 | 29 | 991.7 |
| 20260504081252 | 78 | 113 | 0.0 | 0.0 | 0.00 | 0.00 | 0.11 | 28 | 991.1 |
| 20260504080742 | 78 | 220 | 0.9 | 0.0 | 0.00 | 0.00 | 0.11 | 29 | 991.1 |
| 20260504070248 | 79 | 228 | 6.1 | 0.0 | 0.00 | 0.00 | 0.11 | 32 | 990.3 |
| 20260504060130 | 83 | 197 | 7.0 | 0.0 | 0.00 | 0.00 | 0.11 | 30 | 989.8 |
| 20260504050247 | 88 | 298 | 2.6 | 0.0 | 0.00 | 0.00 | 0.11 | 31 | 989.3 |
| 20260504050131 | 88 | 298 | 3.5 | 0.0 | 0.00 | 0.00 | 0.11 | 31 | 989.3 |
| 20260504045752 | 88 | 309 | 4.3 | 0.0 | 0.00 | 0.00 | 0.11 | 31 | 989.4 |
| 20260504045241 | 88 | 18 | 4.3 | 0.0 | 0.00 | 0.00 | 0.11 | 32 | 989.4 |
| 20260504044737 | 88 | 271 | 3.5 | 0.0 | 0.00 | 0.00 | 0.11 | 32 | 989.4 |
| 20260504044247 | 87 | 52 | 5.2 | 0.0 | 0.00 | 0.00 | 0.11 | 33 | 989.7 |
| 20260504043735 | 86 | 84 | 7.0 | 0.0 | 0.00 | 0.00 | 0.11 | 33 | 989.7 |
| 20260504043253 | 86 | 101 | 6.1 | 0.0 | 0.00 | 0.00 | 0.11 | 33 | 989.7 |
| 20260504043139 | 85 | 97 | 5.2 | 0.0 | 0.00 | 0.00 | 0.11 | 33 | 989.6 |
| 20260504042736 | 85 | 115 | 6.1 | 0.0 | 0.00 | 0.00 | 0.11 | 35 | 989.8 |
| 20260504042248 | 85 | 130 | 6.1 | 0.0 | 0.00 | 0.00 | 0.11 | 35 | 989.8 |
| 20260504041740 | 85 | 106 | 6.1 | 0.0 | 0.00 | 0.00 | 0.11 | 35 | 989.8 |
| 20260504041248 | 84 | 111 | 7.0 | 0.0 | 0.00 | 0.00 | 0.11 | 36 | 990.0 |
| 20260504040742 | 84 | 145 | 5.2 | 0.0 | 0.00 | 0.00 | 0.11 | 37 | 990.0 |
| 20260504040241 | 84 | 151 | 6.1 | 0.0 | 0.00 | 0.00 | 0.11 | 37 | 990.0 |
| 20260504040146 | 84 | 125 | 6.1 | 0.0 | 0.00 | 0.00 | 0.11 | 36 | 990.0 |
| 20260504035746 | 84 | 169 | 7.0 | 0.0 | 0.00 | 0.00 | 0.11 | 36 | 990.3 |
| 20260504035236 | 84 | 156 | 6.1 | 0.0 | 0.00 | 0.00 | 0.11 | 36 | 990.3 |
| 20260504034750 | 85 | 162 | 4.3 | 0.0 | 0.00 | 0.00 | 0.11 | 36 | 990.3 |
| 20260504034239 | 84 | 146 | 4.3 | 0.0 | 0.00 | 0.00 | 0.11 | 36 | 990.7 |
| 20260504033749 | 84 | 154 | 3.5 | 0.0 | 0.00 | 0.00 | 0.11 | 37 | 990.7 |
| 20260504033241 | 84 | 214 | 3.5 | 0.0 | 0.00 | 0.00 | 0.11 | 39 | 990.7 |
| 20260504033131 | 84 | 235 | 4.3 | 0.0 | 0.00 | 0.00 | 0.11 | 40 | 990.7 |
| 20260504032748 | 84 | 228 | 5.2 | 0.0 | 0.00 | 0.00 | 0.11 | 41 | 990.5 |
| 20260504032238 | 83 | 166 | 4.3 | 0.0 | 0.00 | 0.00 | 0.11 | 40 | 990.4 |
| 20260504031752 | 83 | 159 | 4.3 | 0.0 | 0.00 | 0.00 | 0.11 | 40 | 990.4 |
| 20260504031246 | 83 | 89 | 4.3 | 0.0 | 0.00 | 0.00 | 0.11 | 43 | 990.9 |
| 20260504030743 | 83 | 172 | 4.3 | 0.0 | 0.00 | 0.00 | 0.11 | 45 | 990.9 |
| 20260504030132 | 83 | 152 | 5.2 | 0.0 | 0.00 | 0.00 | 0.11 | 44 | 990.9 |
| 20260504025242 | 84 | 120 | 5.2 | 0.0 | 0.00 | 0.00 | 0.11 | 43 | 991.0 |
| 20260504024736 | 84 | 138 | 4.3 | 0.0 | 0.00 | 0.00 | 0.11 | 42 | 991.0 |
| 20260504024249 | 83 | 122 | 3.5 | 0.0 | 0.00 | 0.00 | 0.11 | 44 | 991.2 |
| 20260504023739 | 83 | 137 | 3.5 | 0.0 | 0.00 | 0.00 | 0.11 | 44 | 991.2 |
| 20260504023241 | 83 | 131 | 2.6 | 0.0 | 0.00 | 0.00 | 0.11 | 45 | 991.2 |
| 20260504023145 | 83 | 149 | 2.6 | 0.0 | 0.00 | 0.00 | 0.11 | 45 | 991.2 |
| 20260504022746 | 83 | 151 | 2.6 | 0.0 | 0.00 | 0.00 | 0.11 | 46 | 991.3 |
| 20260504022234 | 83 | 117 | 2.6 | 0.0 | 0.00 | 0.00 | 0.11 | 47 | 991.3 |
| 20260504021750 | 83 | 134 | 0.9 | 0.0 | 0.00 | 0.00 | 0.11 | 45 | 991.3 |
| 20260504021242 | 82 | 97 | 0.9 | 0.0 | 0.00 | 0.00 | 0.11 | 48 | 991.5 |
| 20260504020739 | 81 | 55 | 0.9 | 0.0 | 0.00 | 0.00 | 0.11 | 50 | 991.5 |
| 20260504020238 | 80 | 67 | 0.0 | 0.0 | 0.00 | 0.00 | 0.11 | 52 | 991.5 |
| 20260504020141 | 80 | 67 | 0.9 | 0.0 | 0.00 | 0.00 | 0.11 | 52 | 991.5 |
| 20260504014739 | 79 | 250 | 0.0 | 0.0 | 0.00 | 0.00 | 0.11 | 53 | 991.9 |
| 20260504014247 | 79 | 14 | 0.0 | 0.0 | 0.00 | 0.00 | 0.11 | 54 | 992.2 |
| 20260504013236 | 78 | 12 | 0.0 | 0.0 | 0.00 | 0.00 | 0.11 | 56 | 992.2 |
| 20260504013140 | 78 | 12 | 0.0 | 0.0 | 0.00 | 0.00 | 0.11 | 56 | 992.2 |
| 20260504012741 | 77 | 2 | 0.0 | 0.0 | 0.00 | 0.00 | 0.11 | 56 | 992.3 |
| 20260504012250 | 77 | 353 | 0.0 | 0.0 | 0.00 | 0.00 | 0.11 | 56 | 992.3 |
| 20260504011745 | 77 | 5 | 0.0 | 0.0 | 0.00 | 0.00 | 0.11 | 56 | 992.3 |
| 20260504011234 | 76 | 35 | 0.0 | 0.0 | 0.00 | 0.00 | 0.11 | 57 | 992.5 |
| 20260504010742 | 76 | 10 | 0.0 | 0.0 | 0.00 | 0.00 | 0.11 | 59 | 992.5 |
| 20260504010241 | 75 | 14 | 0.0 | 0.0 | 0.00 | 0.00 | 0.11 | 59 | 992.5 |
| 20260504010145 | 75 | 25 | 0.0 | 0.0 | 0.00 | 0.00 | 0.11 | 59 | 992.5 |
| 20260504005748 | 75 | 355 | 0.0 | 0.0 | 0.00 | 0.00 | 0.11 | 59 | 992.8 |
| 20260504005239 | 74 | 1 | 0.0 | 0.0 | 0.00 | 0.00 | 0.11 | 60 | 992.8 |
| 20260504004248 | 74 | 38 | 0.0 | 0.0 | 0.00 | 0.00 | 0.11 | 61 | 992.9 |
| 20260504003737 | 74 | 42 | 0.0 | 0.0 | 0.00 | 0.00 | 0.11 | 61 | 992.9 |
| 20260504003255 | 74 | 336 | 0.0 | 0.0 | 0.00 | 0.00 | 0.11 | 61 | 992.9 |
| 20260504002743 | 73 | 21 | 0.0 | 0.0 | 0.00 | 0.00 | 0.11 | 62 | 992.9 |
| 20260504002248 | 73 | 36 | 0.0 | 0.0 | 0.00 | 0.00 | 0.11 | 63 | 992.9 |
| 20260504001741 | 72 | 351 | 0.0 | 0.0 | 0.00 | 0.00 | 0.11 | 64 | 992.9 |
| 20260504001252 | 72 | 53 | 0.0 | 0.0 | 0.00 | 0.00 | 0.11 | 65 | 992.9 |
| 20260504000749 | 71 | 347 | 0.0 | 0.0 | 0.00 | 0.00 | 0.11 | 66 | 992.9 |
| 20260504000245 | 71 | 329 | 0.0 | 0.0 | 0.00 | 0.00 | 0.11 | 66 | 992.9 |
| 20260504000129 | 71 | 327 | 0.0 | 0.0 | 0.00 | 0.00 | 0.11 | 66 | 992.9 |
| 20260503235751 | 70 | 19 | 0.0 | 0.0 | 0.00 | 0.00 | 0.11 | 67 | 992.9 |
| 20260503235240 | 70 | 26 | 0.0 | 0.0 | 0.00 | 0.00 | 0.11 | 69 | 992.9 |
| 20260503234253 | 69 | 10 | 0.0 | 0.0 | 0.00 | 0.00 | 0.11 | 70 | 992.9 |
| 20260503233744 | 68 | 22 | 0.0 | 0.0 | 0.00 | 0.00 | 0.11 | 71 | 992.9 |
| 20260503233238 | 68 | 42 | 0.0 | 0.0 | 0.00 | 0.00 | 0.11 | 72 | 992.9 |
| 20260503232745 | 67 | 360 | 0.0 | 0.0 | 0.00 | 0.00 | 0.11 | 74 | 993.0 |
| 20260503231754 | 66 | 358 | 0.0 | 0.0 | 0.00 | 0.00 | 0.11 | 76 | 992.9 |
| 20260503231244 | 66 | 320 | 0.0 | 0.0 | 0.00 | 0.00 | 0.11 | 77 | 992.7 |
| 20260503230738 | 66 | 343 | 0.0 | 0.0 | 0.00 | 0.00 | 0.11 | 78 | 992.7 |
| 20260503230236 | 66 | 25 | 0.0 | 0.0 | 0.00 | 0.00 | 0.11 | 79 | 992.7 |
| 20260503230140 | 66 | 22 | 0.0 | 0.0 | 0.00 | 0.00 | 0.11 | 79 | 992.7 |
| 20260503225240 | 65 | 355 | 0.0 | 0.0 | 0.00 | 0.00 | 0.11 | 81 | 992.9 |
| 20260503224749 | 65 | 1 | 0.0 | 0.0 | 0.00 | 0.00 | 0.11 | 83 | 992.9 |
| 20260503223737 | 64 | 344 | 0.0 | 0.0 | 0.00 | 0.00 | 0.11 | 85 | 992.8 |
| 20260503223141 | 63 | 19 | 0.0 | 0.0 | 0.00 | 0.00 | 0.11 | 86 | 992.8 |
| 20260503222742 | 63 | 21 | 0.0 | 0.0 | 0.00 | 0.00 | 0.11 | 86 | 992.6 |
| 20260503222252 | 63 | 35 | 0.0 | 0.0 | 0.00 | 0.00 | 0.11 | 87 | 992.6 |
| 20260503221749 | 63 | 336 | 0.0 | 0.0 | 0.00 | 0.00 | 0.11 | 88 | 992.6 |
| 20260503220737 | 62 | 333 | 0.0 | 0.0 | 0.00 | 0.00 | 0.11 | 88 | 992.7 |
| 20260503220250 | 62 | 360 | 0.0 | 0.0 | 0.00 | 0.00 | 0.11 | 89 | 992.7 |
| 20260503220137 | 62 | 19 | 0.0 | 0.0 | 0.00 | 0.00 | 0.11 | 89 | 992.7 |
| 20260503215736 | 62 | 344 | 0.0 | 0.0 | 0.00 | 0.00 | 0.11 | 89 | 992.6 |
| 20260503215247 | 62 | 45 | 0.0 | 0.0 | 0.00 | 0.00 | 0.11 | 89 | 992.6 |
| 20260503214741 | 62 | 337 | 0.0 | 0.0 | 0.00 | 0.00 | 0.11 | 89 | 992.6 |
| 20260503214249 | 62 | 330 | 0.0 | 0.0 | 0.00 | 0.00 | 0.11 | 89 | 992.1 |
| 20260503213740 | 62 | 334 | 0.0 | 0.0 | 0.00 | 0.00 | 0.11 | 90 | 992.1 |
| 20260503213240 | 62 | 355 | 0.0 | 0.0 | 0.00 | 0.00 | 0.11 | 90 | 992.1 |
| 20260503213128 | 62 | 5 | 0.0 | 0.0 | 0.00 | 0.00 | 0.11 | 89 | 992.1 |
| 20260503212750 | 61 | 5 | 0.0 | 0.0 | 0.00 | 0.00 | 0.11 | 89 | 991.8 |
| 20260503212240 | 62 | 327 | 0.0 | 0.0 | 0.00 | 0.00 | 0.11 | 90 | 991.9 |
| 20260503211248 | 62 | 319 | 0.0 | 0.0 | 0.00 | 0.00 | 0.11 | 89 | 991.9 |
| 20260503210745 | 62 | 313 | 0.0 | 0.0 | 0.00 | 0.00 | 0.11 | 89 | 991.9 |
| 20260503210246 | 62 | 331 | 0.0 | 0.0 | 0.00 | 0.00 | 0.11 | 89 | 991.9 |
| 20260503210130 | 62 | 316 | 0.0 | 0.0 | 0.00 | 0.00 | 0.11 | 89 | 991.9 |
| 20260503205751 | 63 | 334 | 0.0 | 0.0 | 0.00 | 0.00 | 0.11 | 89 | 991.8 |
| 20260503204745 | 66 | 341 | 0.0 | 0.0 | 0.00 | 0.00 | 0.11 | 87 | 991.9 |
| 20260503204235 | 68 | 125 | 0.0 | 0.0 | 0.00 | 0.00 | 0.11 | 90 | 991.7 |
| 20260503203747 | 68 | 125 | 0.0 | 0.0 | 0.00 | 0.00 | 0.11 | 90 | 991.7 |
| 20260503203244 | 68 | 125 | 0.0 | 0.0 | 0.00 | 0.00 | 0.11 | 90 | 991.7 |
| 20260503202749 | 68 | 175 | 0.0 | 0.0 | 0.00 | 0.00 | 0.11 | 90 | 991.8 |
| 20260503201739 | 67 | 265 | 0.0 | 0.0 | 0.00 | 0.00 | 0.11 | 90 | 991.8 |
| 20260503201249 | 67 | 257 | 0.0 | 0.0 | 0.00 | 0.00 | 0.11 | 90 | 992.3 |
| 20260503200743 | 67 | 186 | 0.0 | 0.0 | 0.00 | 0.00 | 0.10 | 90 | 992.3 |
| 20260503200243 | 66 | 128 | 0.0 | 0.0 | 0.00 | 0.00 | 0.10 | 89 | 992.3 |
| 20260503200127 | 66 | 127 | 0.0 | 0.0 | 0.00 | 0.00 | 0.10 | 89 | 992.3 |
| 20260503195749 | 66 | 128 | 0.0 | 0.0 | 0.00 | 0.00 | 0.09 | 89 | 992.7 |
| 20260503195237 | 66 | 138 | 0.0 | 0.0 | 0.00 | 0.00 | 0.09 | 89 | 992.7 |
| 20260503194750 | 66 | 138 | 0.0 | 0.0 | 0.00 | 0.00 | 0.09 | 89 | 992.7 |
| 20260503194240 | 66 | 137 | 0.0 | 0.0 | 0.00 | 0.00 | 0.07 | 89 | 992.8 |
| 20260503193750 | 66 | 138 | 0.0 | 0.0 | 0.00 | 0.00 | 0.06 | 88 | 992.8 |
| 20260503193246 | 66 | 138 | 0.0 | 0.0 | 0.00 | 0.00 | 0.06 | 88 | 992.8 |
| 20260503192753 | 66 | 138 | 0.0 | 0.0 | 0.00 | 0.00 | 0.04 | 88 | 993.1 |
| 20260503192243 | 66 | 138 | 0.0 | 0.0 | 0.00 | 0.00 | 0.03 | 88 | 993.1 |
| 20260503191739 | 66 | 138 | 0.0 | 0.0 | 0.00 | 0.00 | 0.02 | 88 | 993.1 |
| 20260503191250 | 66 | 113 | 0.0 | 0.0 | 0.00 | 0.00 | 0.02 | 88 | 993.2 |
| 20260503190745 | 66 | 124 | 0.0 | 0.0 | 0.00 | 0.00 | 0.02 | 87 | 993.2 |
| 20260503190241 | 66 | 130 | 0.0 | 0.0 | 0.00 | 0.00 | 0.02 | 87 | 993.2 |
| 20260503190124 | 66 | 128 | 0.0 | 0.0 | 0.00 | 0.00 | 0.02 | 87 | 993.2 |
| 20260503185748 | 66 | 125 | 0.0 | 0.0 | 0.00 | 0.00 | 0.01 | 87 | 993.9 |